This is the latest recevied weather packets stored in our database for station/object DB0OHA-13. If no packets are shown the sender has not sent any weather packets the latest 10 day(s).
| Time | Temp. | Humidity | Pressure | Rain* | Wind** | Luminosity | Snow |
|---|---|---|---|---|---|---|---|
| 1777891274 | 19.44° C | 59% | 1013.5 hPa | 0 mm | - | 701 W/m² | - |
| 1777890673 | 18.33° C | 60% | 1013.5 hPa | 0 mm | - | 343 W/m² | - |
| 1777890073 | 18.33° C | 59% | 1013.6 hPa | 0 mm | - | 290 W/m² | - |
| 1777889473 | 18.89° C | 60% | 1013.7 hPa | 0 mm | - | 556 W/m² | - |
| 1777888873 | 18.33° C | 59% | 1013.7 hPa | 0 mm | - | 775 W/m² | - |
| 1777888273 | 18.33° C | 58% | 1013.7 hPa | 0 mm | - | 391 W/m² | - |
| 1777887673 | 17.78° C | 58% | 1013.8 hPa | 0 mm | - | 607 W/m² | - |
| 1777887073 | 17.22° C | 55% | 1013.8 hPa | 0 mm | - | 334 W/m² | - |
| 1777886473 | 17.22° C | 53% | 1013.8 hPa | 0 mm | - | 376 W/m² | - |
| 1777885873 | 17.78° C | 53% | 1013.8 hPa | 0 mm | - | 456 W/m² | - |
| 1777885273 | 16.67° C | 49% | 1013.9 hPa | 0 mm | - | 446 W/m² | - |
| 1777884672 | 16.67° C | 48% | 1014 hPa | 0 mm | - | 501 W/m² | - |
| 1777884072 | 16.67° C | 50% | 1013.9 hPa | 0 mm | - | 402 W/m² | - |
| 1777883472 | 16.11° C | 47% | 1014 hPa | 0 mm | - | 417 W/m² | - |
| 1777882872 | 16.11° C | 50% | 1014 hPa | 0 mm | - | 376 W/m² | - |
| 1777882272 | 15.56° C | 46% | 1013.9 hPa | 0 mm | - | 342 W/m² | - |
| 1777881672 | 15.56° C | 49% | 1013.9 hPa | 0 mm | - | 275 W/m² | - |
| 1777881072 | 15.56° C | 41% | 1013.9 hPa | 0 mm | - | 262 W/m² | - |
| 1777880472 | 15.56° C | 46% | 1013.6 hPa | 0 mm | - | 231 W/m² | - |
| 1777879872 | 15° C | 43% | 1013.6 hPa | 0 mm | - | 194 W/m² | - |
| 1777879272 | 15° C | 46% | 1013.5 hPa | 0 mm | - | 174 W/m² | - |
| 1777878671 | 15° C | 47% | 1013.5 hPa | 0 mm | - | 202 W/m² | - |
| 1777878072 | 15° C | 50% | 1013.4 hPa | 0 mm | - | 269 W/m² | - |
| 1777877471 | 14.44° C | 46% | 1013.3 hPa | 0 mm | - | 237 W/m² | - |
| 1777876871 | 14.44° C | 44% | 1013.1 hPa | 0 mm | - | 164 W/m² | - |
* Rain latest hour (hover to see other rain measurements)
** Current wind speed in m/s (hover to see current wind gust speed)